Time,TemperatureF,DewpointF,PressureIn,WindDirection,WindDirectionDegrees,WindSpeedMPH,WindSpeedGustMPH,Humidity,HourlyPrecipIn,Conditions,Clouds,dailyrainin,SolarRadiationWatts/m^2,SoftwareType,DateUTC
2013-06-28 00:01:00,71.6,60.1,29.91,West,270,1.6,2.3,67,0.00,RA,SCT,0.00,0.0,WeatherDisplay:10.37,2013-06-28 05:01:00,
2013-06-28 00:06:00,71.6,60.5,29.91,West,270,1.4,2.3,68,0.00,RA,SCT,0.00,0.0,WeatherDisplay:10.37,2013-06-28 05:06:00,
2013-06-28 00:11:00,71.4,61.1,29.91,West,270,1.6,2.3,70,0.00,CLR,SCT,0.00,0.0,WeatherDisplay:10.37,2013-06-28 05:11:00,
2013-06-28 00:16:00,71.4,61.5,29.91,West,270,1.4,2.2,71,0.00,CLR,SCT,0.00,0.0,WeatherDisplay:10.37,2013-06-28 05:16:00,
2013-06-28 00:21:00,71.2,61.4,29.91,West,270,1.4,2.3,71,0.00,CLR,SCT,0.00,0.0,WeatherDisplay:10.37,2013-06-28 05:21:00,
2013-06-28 00:27:00,71.1,61.2,29.91,West,270,1.1,1.4,71,0.00,CLR,SCT,0.00,0.0,WeatherDisplay:10.37,2013-06-28 05:27:00,
2013-06-28 00:32:00,70.9,61.4,29.88,West,270,0.0,0.0,72,0.00,CLR,SCT,0.00,0.0,WeatherDisplay:10.37,2013-06-28 05:32:00,
2013-06-28 00:37:00,70.5,61.8,29.88,West,270,0.0,0.0,74,0.00,CLR,SCT,0.00,0.0,WeatherDisplay:10.37,2013-06-28 05:37:00,
2013-06-28 00:42:00,70.5,61.8,29.88,West,270,0.0,2.0,74,0.00,CLR,SCT,0.00,0.0,WeatherDisplay:10.37,2013-06-28 05:42:00,
2013-06-28 00:48:00,70.5,62.2,29.88,West,270,2.0,2.3,75,0.00,CLR,SCT,0.00,0.0,WeatherDisplay:10.37,2013-06-28 05:48:00,
2013-06-28 00:53:00,70.5,61.8,29.88,West,270,1.4,1.6,74,0.00,CLR,SCT,0.00,0.0,WeatherDisplay:10.37,2013-06-28 05:53:00,
2013-06-28 00:58:00,70.2,61.1,29.88,West,270,1.1,1.4,73,0.00,CLR,SCT,0.00,0.0,WeatherDisplay:10.37,2013-06-28 05:58:00,
2013-06-28 01:03:00,70.2,61.1,29.88,West,270,1.1,1.1,73,0.00,CLR,SCT,0.00,0.0,WeatherDisplay:10.37,2013-06-28 06:03:00,
2013-06-28 01:08:00,70.2,61.5,29.88,West,270,0.0,1.1,74,0.00,CLR,SCT,0.00,0.0,WeatherDisplay:10.37,2013-06-28 06:08:00,
2013-06-28 01:13:00,70.0,60.9,29.88,West,270,0.0,0.0,73,0.00,CLR,SCT,0.00,0.0,WeatherDisplay:10.37,2013-06-28 06:13:00,
2013-06-28 01:18:00,69.8,60.0,29.88,West,270,0.0,2.3,71,0.00,CLR,SCT,0.00,0.0,WeatherDisplay:10.37,2013-06-28 06:18:00,
2013-06-28 01:23:00,69.8,60.0,29.88,West,270,0.9,1.4,71,0.00,CLR,SCT,0.00,0.0,WeatherDisplay:10.37,2013-06-28 06:23:00,
2013-06-28 01:28:00,69.8,60.0,29.88,West,270,0.0,0.0,71,0.00,CLR,SCT,0.00,0.0,WeatherDisplay:10.37,2013-06-28 06:28:00,
2013-06-28 01:33:00,69.6,59.8,29.88,West,270,0.0,0.0,71,0.00,CLR,SCT,0.00,0.0,WeatherDisplay:10.37,2013-06-28 06:33:00,
2013-06-28 01:38:00,69.4,59.6,29.88,West,270,0.0,0.0,71,0.00,CLR,SCT,0.00,0.0,WeatherDisplay:10.37,2013-06-28 06:38:00,
2013-06-28 01:43:00,69.3,59.5,29.85,West,270,0.0,0.0,71,0.00,CLR,SCT,0.00,0.0,WeatherDisplay:10.37,2013-06-28 06:43:00,
2013-06-28 01:49:00,69.3,59.5,29.85,West,270,0.0,0.0,71,0.00,CLR,SCT,0.00,0.0,WeatherDisplay:10.37,2013-06-28 06:49:00,
2013-06-28 01:54:00,69.1,58.9,29.85,West,270,0.0,0.0,70,0.00,CLR,SCT,0.00,0.0,WeatherDisplay:10.37,2013-06-28 06:54:00,
2013-06-28 01:59:00,69.1,58.9,29.88,West,270,0.0,0.0,70,0.00,CLR,SCT,0.00,0.0,WeatherDisplay:10.37,2013-06-28 06:59:00,
2013-06-28 02:04:00,68.9,58.7,29.88,WNW,292,0.9,1.4,70,0.00,CLR,SCT,0.00,0.0,WeatherDisplay:10.37,2013-06-28 07:04:00,
2013-06-28 02:09:00,68.9,58.7,29.88,West,270,1.4,2.3,70,0.00,CLR,SCT,0.00,0.0,WeatherDisplay:10.37,2013-06-28 07:09:00,
2013-06-28 02:14:00,69.1,58.9,29.88,West,270,1.1,1.4,70,0.00,CLR,SCT,0.00,0.0,WeatherDisplay:10.37,2013-06-28 07:14:00,
2013-06-28 02:19:00,69.1,58.9,29.88,West,270,1.1,2.2,70,0.00,CLR,SCT,0.00,0.0,WeatherDisplay:10.37,2013-06-28 07:19:00,
2013-06-28 02:24:00,69.1,58.9,29.88,WNW,292,0.0,1.6,70,0.00,CLR,SCT,0.00,0.0,WeatherDisplay:10.37,2013-06-28 07:24:00,
2013-06-28 02:30:00,69.1,58.5,29.85,West,270,0.9,1.4,69,0.00,CLR,SCT,0.00,0.0,WeatherDisplay:10.37,2013-06-28 07:30:00,
2013-06-28 02:35:00,68.9,58.3,29.85,West,270,0.0,0.0,69,0.00,CLR,SCT,0.00,0.0,WeatherDisplay:10.37,2013-06-28 07:35:00,
2013-06-28 02:41:00,68.7,58.1,29.85,West,270,0.0,1.1,69,0.00,CLR,SCT,0.00,0.0,WeatherDisplay:10.37,2013-06-28 07:41:00,
2013-06-28 02:46:00,68.5,58.0,29.85,WNW,292,2.0,2.4,69,0.00,CLR,SCT,0.00,0.0,WeatherDisplay:10.37,2013-06-28 07:46:00,
2013-06-28 02:51:00,68.7,58.1,29.85,West,270,2.4,2.4,69,0.00,CLR,SCT,0.00,0.0,WeatherDisplay:10.37,2013-06-28 07:51:00,
2013-06-28 02:56:00,68.7,58.1,29.85,WNW,292,1.4,3.5,69,0.00,CLR,SCT,0.00,0.0,WeatherDisplay:10.37,2013-06-28 07:56:00,
2013-06-28 03:01:00,68.5,58.0,29.88,West,270,1.6,2.3,69,0.00,CLR,SCT,0.00,0.0,WeatherDisplay:10.37,2013-06-28 08:01:00,
2013-06-28 03:06:00,68.5,58.0,29.88,WNW,292,2.2,2.4,69,0.00,CLR,SCT,0.00,0.0,WeatherDisplay:10.37,2013-06-28 08:06:00,
2013-06-28 03:11:00,68.5,57.6,29.88,West,270,2.6,4.7,68,0.00,CLR,SCT,0.00,0.0,WeatherDisplay:10.37,2013-06-28 08:11:00,
2013-06-28 03:16:00,68.5,57.6,29.88,West,270,3.3,3.5,68,0.00,CLR,SCT,0.00,0.0,WeatherDisplay:10.37,2013-06-28 08:16:00,
2013-06-28 03:22:00,68.5,57.1,29.88,WNW,292,2.2,2.9,67,0.00,CLR,SCT,0.00,0.0,WeatherDisplay:10.37,2013-06-28 08:22:00,
2013-06-28 03:27:00,68.5,56.7,29.88,West,270,2.4,3.5,66,0.00,CLR,SCT,0.00,0.0,WeatherDisplay:10.37,2013-06-28 08:27:00,
2013-06-28 03:32:00,68.7,55.6,29.88,WNW,292,2.9,4.6,63,0.00,CLR,SCT,0.00,0.0,WeatherDisplay:10.37,2013-06-28 08:32:00,
2013-06-28 03:37:00,69.4,54.5,29.88,WNW,292,3.3,4.6,59,0.00,CLR,SCT,0.00,0.0,WeatherDisplay:10.37,2013-06-28 08:37:00,
2013-06-28 03:42:00,69.6,53.7,29.88,West,270,2.4,3.5,57,0.00,CLR,SCT,0.00,0.0,WeatherDisplay:10.37,2013-06-28 08:42:00,
2013-06-28 03:48:00,69.8,53.4,29.88,West,270,2.4,3.5,56,0.00,CLR,SCT,0.00,0.0,WeatherDisplay:10.37,2013-06-28 08:48:00,
2013-06-28 03:53:00,70.0,53.6,29.88,West,270,2.9,3.5,56,0.00,CLR,SCT,0.00,0.0,WeatherDisplay:10.37,2013-06-28 08:53:00,
2013-06-28 03:58:00,70.0,53.6,29.88,WNW,292,2.6,3.5,56,0.00,CLR,SCT,0.00,0.0,WeatherDisplay:10.37,2013-06-28 08:58:00,
2013-06-28 04:03:00,70.0,54.0,29.88,WNW,292,2.6,3.1,57,0.00,CLR,SCT,0.00,0.0,WeatherDisplay:10.37,2013-06-28 09:03:00,
2013-06-28 04:08:00,70.0,54.0,29.88,WNW,292,2.9,4.6,57,0.00,CLR,SCT,0.00,0.0,WeatherDisplay:10.37,2013-06-28 09:08:00,
2013-06-28 04:13:00,70.3,54.9,29.88,West,270,3.8,4.6,58,0.00,CLR,SCT,0.00,0.0,WeatherDisplay:10.37,2013-06-28 09:13:00,
2013-06-28 04:18:00,70.3,55.3,29.88,WNW,292,2.0,4.9,59,0.00,CLR,SCT,0.00,0.0,WeatherDisplay:10.37,2013-06-28 09:18:00,
2013-06-28 04:23:00,70.0,56.4,29.88,West,270,2.4,3.6,62,0.00,CLR,SCT,0.00,0.0,WeatherDisplay:10.37,2013-06-28 09:23:00,
2013-06-28 04:28:00,70.0,56.4,29.88,WNW,292,2.2,4.6,62,0.00,CLR,SCT,0.00,0.0,WeatherDisplay:10.37,2013-06-28 09:28:00,
2013-06-28 04:33:00,69.8,56.6,29.88,NNW,338,2.2,2.4,63,0.00,CLR,SCT,0.00,0.0,WeatherDisplay:10.37,2013-06-28 09:33:00,
2013-06-28 04:38:00,69.8,57.1,29.88,North,0,2.9,6.2,64,0.00,CLR,SCT,0.00,0.0,WeatherDisplay:10.37,2013-06-28 09:38:00,
2013-06-28 04:43:00,70.0,58.1,29.85,West,270,2.9,5.8,66,0.00,CLR,SCT,0.00,0.0,WeatherDisplay:10.37,2013-06-28 09:43:00,
2013-06-28 04:49:00,70.2,59.1,29.85,WSW,248,3.3,6.9,68,0.00,CLR,SCT,0.00,0.0,WeatherDisplay:10.37,2013-06-28 09:49:00,
2013-06-28 04:54:00,70.2,59.5,29.85,NW,315,4.0,5.6,69,0.00,CLR,SCT,0.00,0.0,WeatherDisplay:10.37,2013-06-28 09:54:00,
2013-06-28 04:59:00,70.5,60.7,29.88,WSW,248,3.6,5.8,71,0.00,CLR,SCT,0.00,0.0,WeatherDisplay:10.37,2013-06-28 09:59:00,
2013-06-28 05:04:00,70.7,60.8,29.88,West,270,4.3,6.9,71,0.00,CLR,SCT,0.00,0.0,WeatherDisplay:10.37,2013-06-28 10:04:00,
2013-06-28 05:09:00,70.9,61.0,29.88,NNW,338,4.3,6.9,71,0.00,CLR,SCT,0.00,0.0,WeatherDisplay:10.37,2013-06-28 10:09:00,
2013-06-28 05:14:00,70.9,60.6,29.88,North,0,2.9,4.7,70,0.00,CLR,SCT,0.00,0.0,WeatherDisplay:10.37,2013-06-28 10:14:00,
2013-06-28 05:19:00,70.9,60.6,29.88,NNW,338,2.2,6.9,70,0.00,CLR,SCT,0.00,0.0,WeatherDisplay:10.37,2013-06-28 10:19:00,
2013-06-28 05:24:00,70.7,60.4,29.88,NW,315,4.7,6.9,70,0.00,OVC,SCT,0.00,0.0,WeatherDisplay:10.37,2013-06-28 10:24:00,
2013-06-28 05:29:00,70.7,60.4,29.88,North,0,3.3,5.8,70,0.00,OVC,SCT,0.00,0.0,WeatherDisplay:10.37,2013-06-28 10:29:00,
2013-06-28 05:34:00,70.5,60.7,29.88,North,0,3.6,4.6,71,0.00,OVC,SCT,0.00,0.0,WeatherDisplay:10.37,2013-06-28 10:34:00,
2013-06-28 05:39:00,70.3,60.5,29.88,North,0,3.3,4.6,71,0.00,OVC,SCT,0.00,0.0,WeatherDisplay:10.37,2013-06-28 10:39:00,
2013-06-28 05:45:00,70.0,60.6,29.88,NW,323,3.0,6.0,72,0.00,OVC,SCT,0.00,318.3,WeatherDisplay:10.37,2013-06-28 10:45:00,
2013-06-28 05:50:00,69.8,60.4,29.88,WNW,292,2.4,5.8,72,0.00,OVC,SCT,0.00,0.0,WeatherDisplay:10.37,2013-06-28 10:50:00,
2013-06-28 05:55:00,69.6,60.6,29.88,WNW,292,3.3,6.9,73,0.00,SCT,,0.00,317.4,WeatherDisplay:10.37,2013-06-28 10:55:00,
2013-06-28 06:00:00,69.4,60.8,29.88,WNW,292,1.6,4.6,74,0.00,SCT,,0.00,0.0,WeatherDisplay:10.37,2013-06-28 11:00:00,
2013-06-28 06:05:00,69.4,60.8,29.88,WNW,292,2.4,3.5,74,0.00,SCT,,0.00,0.0,WeatherDisplay:10.37,2013-06-28 11:05:00,
2013-06-28 06:10:00,69.3,61.0,29.88,WNW,292,3.6,4.6,75,0.00,SCT,,0.00,0.0,WeatherDisplay:10.37,2013-06-28 11:10:00,
2013-06-28 06:15:00,69.1,60.8,29.88,North,0,1.4,3.5,75,0.00,SCT,,0.00,0.0,WeatherDisplay:10.37,2013-06-28 11:15:00,
2013-06-28 06:21:00,69.1,60.8,29.88,NNW,338,2.0,3.5,75,0.00,SCT,,0.00,286.2,WeatherDisplay:10.37,2013-06-28 11:21:00,
2013-06-28 06:26:00,68.9,60.6,29.88,NNE,22,2.0,2.6,75,0.00,SCT,,0.00,0.0,WeatherDisplay:10.37,2013-06-28 11:26:00,
2013-06-28 06:31:00,68.9,60.6,29.88,ENE,68,1.6,3.5,75,0.00,SCT,,0.00,0.0,WeatherDisplay:10.37,2013-06-28 11:31:00,
2013-06-28 06:36:00,68.7,60.5,29.88,West,270,1.4,2.6,75,0.00,SCT,,0.00,0.0,WeatherDisplay:10.37,2013-06-28 11:36:00,
2013-06-28 06:42:00,68.7,60.5,29.88,North,0,1.1,4.6,75,0.00,SCT,,0.00,0.0,WeatherDisplay:10.37,2013-06-28 11:42:00,
2013-06-28 06:47:00,68.7,60.8,29.88,South,180,2.4,3.5,76,0.00,SCT,,0.00,235.0,WeatherDisplay:10.37,2013-06-28 11:47:00,
2013-06-28 06:52:00,68.7,60.5,29.88,NNE,22,2.0,3.5,75,0.00,SCT,,0.00,0.0,WeatherDisplay:10.37,2013-06-28 11:52:00,
2013-06-28 06:57:00,68.9,60.6,29.88,NNW,338,2.2,2.3,75,0.00,SCT,,0.00,0.0,WeatherDisplay:10.37,2013-06-28 11:57:00,
2013-06-28 07:02:00,68.9,60.3,29.91,North,0,1.4,3.5,74,0.00,SCT,,0.00,0.0,WeatherDisplay:10.37,2013-06-28 12:02:00,
2013-06-28 07:07:00,69.1,60.1,29.91,West,270,1.1,2.3,73,0.00,SCT,,0.00,0.0,WeatherDisplay:10.37,2013-06-28 12:07:00,
2013-06-28 07:12:00,69.3,59.5,29.91,WNW,292,2.0,3.5,71,0.00,SCT,,0.00,0.0,WeatherDisplay:10.37,2013-06-28 12:12:00,
2013-06-28 07:17:00,69.4,59.2,29.91,NNW,338,0.0,1.1,70,0.00,SCT,,0.00,0.0,WeatherDisplay:10.37,2013-06-28 12:17:00,
2013-06-28 07:22:00,69.8,59.2,29.91,North,0,2.2,3.8,69,0.00,SCT,,0.00,0.0,WeatherDisplay:10.37,2013-06-28 12:22:00,
2013-06-28 07:28:00,70.0,58.5,29.91,NNW,338,2.9,4.6,67,0.00,SCT,,0.00,0.0,WeatherDisplay:10.37,2013-06-28 12:28:00,
2013-06-28 07:33:00,70.3,59.3,29.91,NNW,338,1.4,2.6,68,0.00,SCT,,0.00,0.0,WeatherDisplay:10.37,2013-06-28 12:33:00,
2013-06-28 07:38:00,70.5,58.6,29.91,North,0,2.4,3.3,66,0.00,SCT,,0.00,0.0,WeatherDisplay:10.37,2013-06-28 12:38:00,
2013-06-28 07:43:00,70.9,57.7,29.91,North,0,2.9,4.6,63,0.00,BKN,SCT,0.00,0.0,WeatherDisplay:10.37,2013-06-28 12:43:00,
2013-06-28 07:48:00,71.1,57.4,29.91,South,180,2.6,3.5,62,0.00,BKN,SCT,0.00,0.0,WeatherDisplay:10.37,2013-06-28 12:48:00,
2013-06-28 07:53:00,71.2,57.1,29.91,WNW,292,3.1,4.6,61,0.00,BKN,SCT,0.00,0.0,WeatherDisplay:10.37,2013-06-28 12:53:00,
2013-06-28 07:59:00,71.6,56.5,29.91,WNW,292,1.6,2.3,59,0.00,BKN,SCT,0.00,0.0,WeatherDisplay:10.37,2013-06-28 12:59:00,
2013-06-28 08:04:00,72.0,55.9,29.91,North,0,1.6,3.5,57,0.00,BKN,SCT,0.00,0.0,WeatherDisplay:10.37,2013-06-28 13:04:00,
2013-06-28 08:09:00,72.3,55.7,29.91,North,0,3.1,4.7,56,0.00,BKN,SCT,0.00,0.0,WeatherDisplay:10.37,2013-06-28 13:09:00,
2013-06-28 08:14:00,72.5,53.9,29.94,South,180,2.0,3.3,52,0.00,BKN,SCT,0.00,0.0,WeatherDisplay:10.37,2013-06-28 13:14:00,
2013-06-28 08:19:00,72.9,53.7,29.94,NE,45,2.9,3.8,51,0.00,BKN,SCT,0.00,0.0,WeatherDisplay:10.37,2013-06-28 13:19:00,
2013-06-28 08:24:00,73.2,54.0,29.94,NNE,22,2.0,4.6,51,0.00,BKN,SCT,0.00,0.0,WeatherDisplay:10.37,2013-06-28 13:24:00,
2013-06-28 08:29:00,73.4,53.6,29.94,WNW,292,2.4,5.6,50,0.00,BKN,SCT,0.00,0.0,WeatherDisplay:10.37,2013-06-28 13:29:00,
2013-06-28 08:34:00,73.6,53.8,29.94,North,0,2.6,4.6,50,0.00,BKN,SCT,0.00,0.0,WeatherDisplay:10.37,2013-06-28 13:34:00,
2013-06-28 08:39:00,73.8,53.4,29.94,NNW,338,2.6,2.9,49,0.00,BKN,SCT,0.00,0.0,WeatherDisplay:10.37,2013-06-28 13:39:00,
2013-06-28 08:45:00,74.1,53.2,29.94,NNW,340,3.0,6.0,48,0.00,BKN,SCT,0.00,3.1,WeatherDisplay:10.37,2013-06-28 13:45:00,
2013-06-28 08:50:00,74.3,53.9,29.94,North,0,2.6,4.6,49,0.00,BKN,SCT,0.00,0.0,WeatherDisplay:10.37,2013-06-28 13:50:00,
2013-06-28 08:55:00,74.7,53.7,29.94,North,0,2.6,5.4,48,0.00,BKN,SCT,0.00,0.0,WeatherDisplay:10.37,2013-06-28 13:55:00,
2013-06-28 09:00:00,74.8,52.1,29.94,West,270,4.0,4.6,45,0.00,OVC,SCT,0.00,0.0,WeatherDisplay:10.37,2013-06-28 14:00:00,
2013-06-28 09:05:00,75.0,52.2,29.94,NW,315,1.6,3.5,45,0.00,OVC,SCT,0.00,0.0,WeatherDisplay:10.37,2013-06-28 14:05:00,
2013-06-28 09:10:00,75.4,51.9,29.94,NW,315,4.3,5.8,44,0.00,OVC,SCT,0.00,0.0,WeatherDisplay:10.37,2013-06-28 14:10:00,
2013-06-28 09:15:00,75.6,51.5,29.94,West,270,4.5,8.1,43,0.00,OVC,SCT,0.00,0.0,WeatherDisplay:10.37,2013-06-28 14:15:00,
2013-06-28 09:20:00,75.9,52.4,29.94,NNW,338,3.1,4.6,44,0.00,OVC,SCT,0.00,100.0,WeatherDisplay:10.37,2013-06-28 14:20:00,
2013-06-28 09:25:00,76.1,52.0,29.94,NW,315,4.3,5.8,43,0.00,OVC,SCT,0.00,100.0,WeatherDisplay:10.37,2013-06-28 14:25:00,
2013-06-28 09:30:00,76.3,52.1,29.94,NNE,22,4.5,8.1,43,0.00,OVC,SCT,0.00,100.0,WeatherDisplay:10.37,2013-06-28 14:30:00,
2013-06-28 09:35:00,76.6,52.5,29.94,WNW,292,3.1,6.9,43,0.00,OVC,SCT,0.00,100.0,WeatherDisplay:10.37,2013-06-28 14:35:00,
2013-06-28 09:41:00,77.0,53.4,29.94,North,0,2.6,4.6,44,0.00,OVC,SCT,0.00,100.0,WeatherDisplay:10.37,2013-06-28 14:41:00,
2013-06-28 09:46:00,77.2,52.3,29.94,WNW,292,3.3,4.9,42,0.00,OVC,SCT,0.00,100.0,WeatherDisplay:10.37,2013-06-28 14:46:00,
2013-06-28 09:51:00,77.4,51.8,29.94,WNW,292,3.8,5.8,41,0.00,OVC,SCT,0.00,100.0,WeatherDisplay:10.37,2013-06-28 14:51:00,
2013-06-28 09:56:00,77.5,52.6,29.94,North,0,3.6,8.1,42,0.00,OVC,SCT,0.00,100.0,WeatherDisplay:10.37,2013-06-28 14:56:00,
2013-06-28 10:01:00,77.7,52.1,29.94,West,270,3.1,4.6,41,0.00,OVC,SCT,0.00,100.0,WeatherDisplay:10.37,2013-06-28 15:01:00,
2013-06-28 10:06:00,78.3,53.9,29.94,North,0,2.4,4.6,43,0.00,OVC,SCT,0.00,200.0,WeatherDisplay:10.37,2013-06-28 15:06:00,
2013-06-28 10:11:00,78.4,52.1,29.94,NNW,338,3.8,8.1,40,0.00,OVC,SCT,0.00,200.0,WeatherDisplay:10.37,2013-06-28 15:11:00,
2013-06-28 10:17:00,78.6,52.3,29.94,NNW,338,3.6,6.9,40,0.00,OVC,SCT,0.00,200.0,WeatherDisplay:10.37,2013-06-28 15:17:00,
2013-06-28 10:22:00,79.0,51.2,29.94,WNW,292,5.9,8.7,38,0.00,OVC,SCT,0.00,200.0,WeatherDisplay:10.37,2013-06-28 15:22:00,
2013-06-28 10:27:00,79.2,52.1,29.94,WSW,248,3.1,5.8,39,0.00,OVC,SCT,0.00,200.0,WeatherDisplay:10.37,2013-06-28 15:27:00,
2013-06-28 10:32:00,79.5,51.0,29.94,NNW,338,3.6,5.8,37,0.00,OVC,SCT,0.00,200.0,WeatherDisplay:10.37,2013-06-28 15:32:00,
2013-06-28 10:37:00,79.9,51.3,29.94,NW,315,4.0,5.8,37,0.00,OVC,SCT,0.00,200.0,WeatherDisplay:10.37,2013-06-28 15:37:00,
2013-06-28 10:42:00,79.7,50.4,29.94,NW,315,6.4,9.7,36,0.00,OVC,SCT,0.00,200.0,WeatherDisplay:10.37,2013-06-28 15:42:00,
2013-06-28 10:48:00,79.7,49.6,29.94,NW,315,6.9,10.4,35,0.00,OVC,SCT,0.00,300.0,WeatherDisplay:10.37,2013-06-28 15:48:00,
2013-06-28 10:53:00,79.7,49.6,29.94,WNW,292,5.4,8.1,35,0.00,OVC,SCT,0.00,300.0,WeatherDisplay:10.37,2013-06-28 15:53:00,
2013-06-28 10:58:00,79.9,49.8,29.94,NNW,338,4.0,7.8,35,0.00,OVC,SCT,0.00,300.0,WeatherDisplay:10.37,2013-06-28 15:58:00,
2013-06-28 11:03:00,80.2,50.9,29.94,SE,135,3.3,5.8,36,0.00,OVC,SCT,0.00,300.0,WeatherDisplay:10.37,2013-06-28 16:03:00,
2013-06-28 11:08:00,80.4,49.5,29.94,NNW,338,4.0,4.6,34,0.00,OVC,SCT,0.00,300.0,WeatherDisplay:10.37,2013-06-28 16:08:00,
2013-06-28 11:13:00,80.8,49.0,29.91,NNW,338,5.9,11.5,33,0.00,OVC,SCT,0.00,300.0,WeatherDisplay:10.37,2013-06-28 16:13:00,
2013-06-28 11:18:00,81.0,48.3,29.91,West,270,4.5,5.8,32,0.00,OVC,SCT,0.00,300.0,WeatherDisplay:10.37,2013-06-28 16:18:00,
2013-06-28 11:23:00,81.1,48.5,29.91,NNE,22,6.2,8.1,32,0.00,OVC,SCT,0.00,300.0,WeatherDisplay:10.37,2013-06-28 16:23:00,
2013-06-28 11:29:00,81.0,47.5,29.94,WNW,292,6.7,12.7,31,0.00,OVC,SCT,0.00,400.0,WeatherDisplay:10.37,2013-06-28 16:29:00,
2013-06-28 11:34:00,81.3,49.5,29.94,NNW,338,5.4,8.1,33,0.00,OVC,SCT,0.00,400.0,WeatherDisplay:10.37,2013-06-28 16:34:00,
2013-06-28 11:39:00,81.7,48.1,29.94,NNE,22,6.4,11.5,31,0.00,OVC,SCT,0.00,400.0,WeatherDisplay:10.37,2013-06-28 16:39:00,
2013-06-28 11:44:00,81.9,49.1,29.94,North,0,4.3,6.9,32,0.00,OVC,SCT,0.00,400.0,WeatherDisplay:10.37,2013-06-28 16:44:00,
2013-06-28 11:49:00,82.2,50.2,29.94,North,0,3.6,6.2,33,0.00,OVC,SCT,0.00,300.0,WeatherDisplay:10.37,2013-06-28 16:49:00,
2013-06-28 11:54:00,82.4,47.8,29.94,WNW,292,7.8,13.8,30,0.00,OVC,SCT,0.00,400.0,WeatherDisplay:10.37,2013-06-28 16:54:00,
2013-06-28 11:59:00,82.0,48.4,29.94,NNE,22,6.4,9.2,31,0.00,OVC,SCT,0.00,400.0,WeatherDisplay:10.37,2013-06-28 16:59:00,
2013-06-28 12:04:00,82.0,47.5,29.94,WNW,292,6.9,6.9,30,0.00,OVC,SCT,0.00,400.0,WeatherDisplay:10.37,2013-06-28 17:04:00,
2013-06-28 12:09:00,82.2,47.7,29.94,WSW,248,3.1,7.4,30,0.00,OVC,SCT,0.00,400.0,WeatherDisplay:10.37,2013-06-28 17:09:00,
2013-06-28 12:14:00,82.6,48.9,29.94,SSW,202,4.0,8.1,31,0.00,OVC,SCT,0.00,400.0,WeatherDisplay:10.37,2013-06-28 17:14:00,
2013-06-28 12:19:00,82.4,46.9,29.94,NW,315,5.6,9.2,29,0.00,OVC,SCT,0.00,400.0,WeatherDisplay:10.37,2013-06-28 17:19:00,
2013-06-28 12:24:00,82.6,48.0,29.94,NNE,22,4.7,12.3,30,0.00,OVC,SCT,0.00,400.0,WeatherDisplay:10.37,2013-06-28 17:24:00,
2013-06-28 12:30:00,82.6,47.1,29.94,West,270,6.4,9.2,29,0.00,OVC,SCT,0.00,400.0,WeatherDisplay:10.37,2013-06-28 17:30:00,
2013-06-28 12:35:00,82.8,47.3,29.94,WNW,292,5.9,13.0,29,0.00,OVC,SCT,0.00,400.0,WeatherDisplay:10.37,2013-06-28 17:35:00,
2013-06-28 12:40:00,82.6,47.1,29.94,West,270,4.3,9.2,29,0.00,OVC,SCT,0.00,400.0,WeatherDisplay:10.37,2013-06-28 17:40:00,
2013-06-28 12:45:00,82.9,47.4,29.91,WNW,292,3.3,6.9,29,0.00,OVC,SCT,0.00,400.0,WeatherDisplay:10.37,2013-06-28 17:45:00,
2013-06-28 12:50:00,82.9,45.5,29.91,SSW,202,4.9,12.7,27,0.00,OVC,SCT,0.00,400.0,WeatherDisplay:10.37,2013-06-28 17:50:00,
2013-06-28 12:55:00,83.1,47.6,29.91,NNE,22,4.7,8.1,29,0.00,OVC,SCT,0.00,400.0,WeatherDisplay:10.37,2013-06-28 17:55:00,
2013-06-28 13:00:00,83.1,47.6,29.91,WNW,292,6.9,8.1,29,0.00,OVC,SCT,0.00,400.0,WeatherDisplay:10.37,2013-06-28 18:00:00,
2013-06-28 13:06:00,83.1,47.6,29.91,WNW,292,5.6,9.2,29,0.00,OVC,SCT,0.00,400.0,WeatherDisplay:10.37,2013-06-28 18:06:00,
2013-06-28 13:11:00,82.8,46.3,29.91,North,0,5.9,12.7,28,0.00,OVC,SCT,0.00,400.0,WeatherDisplay:10.37,2013-06-28 18:11:00,
2013-06-28 13:16:00,82.8,46.3,29.91,NNE,22,7.4,12.7,28,0.00,OVC,SCT,0.00,400.0,WeatherDisplay:10.37,2013-06-28 18:16:00,
2013-06-28 13:21:00,82.9,45.5,29.91,NNW,338,6.7,11.5,27,0.00,OVC,SCT,0.00,400.0,WeatherDisplay:10.37,2013-06-28 18:21:00,
2013-06-28 13:26:00,83.1,47.6,29.91,East,90,6.4,6.9,29,0.00,OVC,SCT,0.00,400.0,WeatherDisplay:10.37,2013-06-28 18:26:00,
2013-06-28 13:31:00,83.7,48.0,29.88,NNW,338,4.7,6.0,29,0.00,OVC,SCT,0.00,400.0,WeatherDisplay:10.37,2013-06-28 18:31:00,
2013-06-28 13:36:00,83.5,45.0,29.88,WNW,292,7.4,10.4,26,0.00,OVC,SCT,0.00,400.0,WeatherDisplay:10.37,2013-06-28 18:36:00,
2013-06-28 13:41:00,83.7,47.1,29.88,North,0,4.5,13.2,28,0.00,OVC,SCT,0.00,400.0,WeatherDisplay:10.37,2013-06-28 18:41:00,
2013-06-28 13:46:00,84.0,47.4,29.91,North,0,5.4,10.5,28,0.00,OVC,SCT,0.00,400.0,WeatherDisplay:10.37,2013-06-28 18:46:00,
2013-06-28 13:52:00,84.2,45.6,29.91,WNW,292,4.7,9.2,26,0.00,OVC,SCT,0.00,400.0,WeatherDisplay:10.37,2013-06-28 18:52:00,
2013-06-28 13:57:00,84.4,47.7,29.91,NNE,22,5.6,9.2,28,0.00,OVC,SCT,0.00,400.0,WeatherDisplay:10.37,2013-06-28 18:57:00,
2013-06-28 14:02:00,84.2,45.6,29.91,NNW,338,7.4,11.5,26,0.00,OVC,SCT,0.00,400.0,WeatherDisplay:10.37,2013-06-28 19:02:00,
2013-06-28 14:07:00,84.2,42.4,29.91,West,270,6.4,8.1,23,0.00,OVC,SCT,0.00,400.0,WeatherDisplay:10.37,2013-06-28 19:07:00,
2013-06-28 14:12:00,84.4,44.7,29.91,NNE,22,4.3,8.1,25,0.00,OVC,SCT,0.00,400.0,WeatherDisplay:10.37,2013-06-28 19:12:00,
2013-06-28 14:18:00,84.6,43.8,29.85,NNE,22,5.4,8.1,24,0.00,OVC,SCT,0.00,400.0,WeatherDisplay:10.37,2013-06-28 19:18:00,
2013-06-28 14:23:00,84.4,43.6,29.85,North,0,7.8,11.5,24,0.00,OVC,SCT,0.00,400.0,WeatherDisplay:10.37,2013-06-28 19:23:00,
2013-06-28 14:28:00,84.4,45.7,29.85,WNW,292,5.4,6.9,26,0.00,OVC,SCT,0.00,400.0,WeatherDisplay:10.37,2013-06-28 19:28:00,
2013-06-28 14:33:00,84.7,42.8,29.85,WNW,292,8.5,10.4,23,0.00,OVC,SCT,0.00,400.0,WeatherDisplay:10.37,2013-06-28 19:33:00,
2013-06-28 14:38:00,84.4,41.4,29.85,North,0,6.9,15.0,22,0.00,OVC,SCT,0.00,400.0,WeatherDisplay:10.37,2013-06-28 19:38:00,
2013-06-28 14:43:00,84.6,41.5,29.88,NE,45,8.7,10.4,22,0.00,OVC,SCT,0.00,400.0,WeatherDisplay:10.37,2013-06-28 19:43:00,
2013-06-28 14:49:00,84.7,42.8,29.88,NNE,22,5.6,8.1,23,0.00,OVC,SCT,0.00,400.0,WeatherDisplay:10.37,2013-06-28 19:49:00,
2013-06-28 14:54:00,84.9,41.8,29.88,North,0,7.4,10.4,22,0.00,OVC,SCT,0.00,400.0,WeatherDisplay:10.37,2013-06-28 19:54:00,
2013-06-28 14:59:00,84.9,41.8,29.88,West,270,7.8,13.8,22,0.00,OVC,SCT,0.00,400.0,WeatherDisplay:10.37,2013-06-28 19:59:00,
2013-06-28 15:04:00,84.7,41.7,29.88,NNE,22,8.1,10.4,22,0.00,OVC,SCT,0.00,400.0,WeatherDisplay:10.37,2013-06-28 20:04:00,
2013-06-28 15:09:00,85.1,43.1,29.88,NNW,338,4.3,7.6,23,0.00,OVC,SCT,0.00,400.0,WeatherDisplay:10.37,2013-06-28 20:09:00,
2013-06-28 15:15:00,85.2,42.0,29.88,NW,324,6.0,12.0,22,0.00,OVC,SCT,0.00,300.0,WeatherDisplay:10.37,2013-06-28 20:15:00,
2013-06-28 15:20:00,85.3,43.3,29.88,West,270,7.1,12.1,23,0.00,OVC,SCT,0.00,300.0,WeatherDisplay:10.37,2013-06-28 20:20:00,
2013-06-28 15:25:00,85.3,42.1,29.88,West,270,3.6,10.4,22,0.00,OVC,SCT,0.00,300.0,WeatherDisplay:10.37,2013-06-28 20:25:00,
2013-06-28 15:30:00,85.3,43.3,29.88,NNE,22,5.4,10.4,23,0.00,OVC,SCT,0.00,300.0,WeatherDisplay:10.37,2013-06-28 20:30:00,
2013-06-28 15:35:00,85.3,40.9,29.88,North,0,6.0,11.5,21,0.00,OVC,SCT,0.00,300.0,WeatherDisplay:10.37,2013-06-28 20:35:00,
2013-06-28 15:40:00,85.5,43.4,29.88,West,270,4.7,8.1,23,0.00,OVC,SCT,0.00,300.0,WeatherDisplay:10.37,2013-06-28 20:40:00,
2013-06-28 15:45:00,85.5,42.3,29.88,ENE,68,5.6,7.1,22,0.00,OVC,SCT,0.00,300.0,WeatherDisplay:10.37,2013-06-28 20:45:00,
2013-06-28 15:50:00,85.8,43.7,29.88,East,90,5.4,9.2,23,0.00,OVC,SCT,0.00,300.0,WeatherDisplay:10.37,2013-06-28 20:50:00,
2013-06-28 15:55:00,85.5,42.3,29.88,NNW,338,7.6,10.4,22,0.00,OVC,SCT,0.00,300.0,WeatherDisplay:10.37,2013-06-28 20:55:00,
2013-06-28 16:00:00,85.3,42.1,29.88,WNW,292,7.6,13.8,22,0.00,OVC,SCT,0.00,300.0,WeatherDisplay:10.37,2013-06-28 21:00:00,
2013-06-28 16:05:00,85.3,42.1,29.88,NNE,22,8.1,11.5,22,0.00,OVC,SCT,0.00,300.0,WeatherDisplay:10.37,2013-06-28 21:05:00,
2013-06-28 16:11:00,84.9,41.8,29.88,NNW,338,6.7,12.7,22,0.00,OVC,SCT,0.00,200.0,WeatherDisplay:10.37,2013-06-28 21:11:00,
2013-06-28 16:16:00,85.1,42.0,29.88,West,270,5.4,11.5,22,0.00,OVC,SCT,0.00,200.0,WeatherDisplay:10.37,2013-06-28 21:16:00,
2013-06-28 16:21:00,85.1,42.0,29.88,NNE,22,7.1,13.8,22,0.00,OVC,SCT,0.00,200.0,WeatherDisplay:10.37,2013-06-28 21:21:00,
2013-06-28 16:26:00,85.1,43.1,29.88,North,0,4.5,9.2,23,0.00,OVC,SCT,0.00,200.0,WeatherDisplay:10.37,2013-06-28 21:26:00,
2013-06-28 16:31:00,84.9,41.8,29.88,WNW,292,9.2,13.8,22,0.00,OVC,SCT,0.00,200.0,WeatherDisplay:10.37,2013-06-28 21:31:00,
2013-06-28 16:36:00,84.9,41.8,29.88,NNE,22,7.4,12.7,22,0.00,OVC,SCT,0.00,200.0,WeatherDisplay:10.37,2013-06-28 21:36:00,
2013-06-28 16:42:00,85.1,42.0,29.88,East,90,6.7,10.4,22,0.00,OVC,SCT,0.00,200.0,WeatherDisplay:10.37,2013-06-28 21:42:00,
2013-06-28 16:47:00,85.3,43.3,29.88,South,180,5.6,11.5,23,0.00,OVC,SCT,0.00,200.0,WeatherDisplay:10.37,2013-06-28 21:47:00,
2013-06-28 16:52:00,85.3,43.3,29.88,WNW,292,5.4,8.1,23,0.00,OVC,SCT,0.00,200.0,WeatherDisplay:10.37,2013-06-28 21:52:00,
2013-06-28 16:57:00,85.5,43.4,29.88,NNE,22,3.8,9.7,23,0.00,OVC,SCT,0.00,200.0,WeatherDisplay:10.37,2013-06-28 21:57:00,
2013-06-28 17:02:00,84.9,43.0,29.88,NNW,338,5.6,8.1,23,0.00,OVC,SCT,0.00,0.0,WeatherDisplay:10.37,2013-06-28 22:02:00,
2013-06-28 17:08:00,85.1,43.1,29.88,North,0,6.2,9.8,23,0.00,OVC,SCT,0.00,100.0,WeatherDisplay:10.37,2013-06-28 22:08:00,
2013-06-28 17:13:00,85.3,43.3,29.88,WNW,292,5.4,9.2,23,0.00,OVC,SCT,0.00,100.0,WeatherDisplay:10.37,2013-06-28 22:13:00,
2013-06-28 17:18:00,85.1,43.1,29.88,NNE,22,4.0,7.8,23,0.00,OVC,SCT,0.00,0.0,WeatherDisplay:10.37,2013-06-28 22:18:00,
2013-06-28 17:23:00,84.9,43.0,29.88,North,0,6.0,11.5,23,0.00,OVC,SCT,0.00,100.0,WeatherDisplay:10.37,2013-06-28 22:23:00,
2013-06-28 17:28:00,84.9,43.0,29.85,SSW,202,4.7,11.5,23,0.00,OVC,SCT,0.00,100.0,WeatherDisplay:10.37,2013-06-28 22:28:00,
2013-06-28 17:33:00,84.7,41.7,29.85,WNW,292,6.9,6.9,22,0.00,OVC,SCT,0.00,100.0,WeatherDisplay:10.37,2013-06-28 22:33:00,
2013-06-28 17:38:00,84.9,43.0,29.85,NNW,338,4.0,5.8,23,0.00,OVC,SCT,0.00,100.0,WeatherDisplay:10.37,2013-06-28 22:38:00,
2013-06-28 17:44:00,84.9,43.0,29.85,South,180,3.6,5.8,23,0.00,OVC,SCT,0.00,0.0,WeatherDisplay:10.37,2013-06-28 22:44:00,
2013-06-28 17:49:00,85.3,44.4,29.85,NNE,22,2.9,5.4,24,0.00,OVC,SCT,0.00,0.0,WeatherDisplay:10.37,2013-06-28 22:49:00,
2013-06-28 17:54:00,84.9,41.8,29.85,North,0,7.1,11.5,22,0.00,OVC,SCT,0.00,0.0,WeatherDisplay:10.37,2013-06-28 22:54:00,
2013-06-28 17:59:00,84.7,42.8,29.85,WNW,292,4.9,7.1,23,0.00,OVC,SCT,0.00,0.0,WeatherDisplay:10.37,2013-06-28 22:59:00,
2013-06-28 18:04:00,84.7,42.8,29.85,WSW,248,4.5,9.2,23,0.00,OVC,SCT,0.00,0.0,WeatherDisplay:10.37,2013-06-28 23:04:00,
2013-06-28 18:09:00,84.9,44.1,29.85,North,0,4.7,10.7,24,0.00,OVC,SCT,0.00,0.0,WeatherDisplay:10.37,2013-06-28 23:09:00,
2013-06-28 18:14:00,84.7,43.9,29.85,WNW,292,4.9,8.1,24,0.00,OVC,SCT,0.00,0.0,WeatherDisplay:10.37,2013-06-28 23:14:00,
2013-06-28 18:19:00,84.6,44.9,29.85,North,0,4.0,10.4,25,0.00,OVC,SCT,0.00,0.0,WeatherDisplay:10.37,2013-06-28 23:19:00,
2013-06-28 18:25:00,84.4,43.6,29.85,NE,45,5.9,8.1,24,0.00,OVC,SCT,0.00,0.0,WeatherDisplay:10.37,2013-06-28 23:25:00,
2013-06-28 18:30:00,84.4,43.6,29.85,North,0,4.5,8.1,24,0.00,OVC,SCT,0.00,0.0,WeatherDisplay:10.37,2013-06-28 23:30:00,
2013-06-28 18:35:00,84.2,43.5,29.85,WSW,248,4.9,9.2,24,0.00,OVC,SCT,0.00,0.0,WeatherDisplay:10.37,2013-06-28 23:35:00,
2013-06-28 18:40:00,84.0,44.4,29.85,WNW,292,4.5,9.2,25,0.00,OVC,SCT,0.00,0.0,WeatherDisplay:10.37,2013-06-28 23:40:00,
2013-06-28 18:45:00,84.0,43.3,29.85,West,270,4.3,5.4,24,0.00,OVC,SCT,0.00,0.0,WeatherDisplay:10.37,2013-06-28 23:45:00,
2013-06-28 18:50:00,83.8,43.2,29.85,SSW,202,4.3,6.9,24,0.00,OVC,SCT,0.00,0.0,WeatherDisplay:10.37,2013-06-28 23:50:00,
2013-06-28 18:55:00,83.5,41.8,29.85,NNE,22,5.4,14.5,23,0.00,OVC,SCT,0.00,0.0,WeatherDisplay:10.37,2013-06-28 23:55:00,
2013-06-28 19:00:00,83.5,41.8,29.85,WSW,248,3.6,4.6,23,0.00,OVC,SCT,0.00,0.0,WeatherDisplay:10.37,2013-06-29 00:00:00,
2013-06-28 19:06:00,83.3,41.6,29.85,North,0,3.8,6.9,23,0.00,OVC,SCT,0.00,0.0,WeatherDisplay:10.37,2013-06-29 00:06:00,
2013-06-28 19:11:00,83.1,42.6,29.85,ENE,68,4.5,5.8,24,0.00,OVC,SCT,0.00,0.0,WeatherDisplay:10.37,2013-06-29 00:11:00,
2013-06-28 19:16:00,83.1,43.6,29.85,North,0,4.5,8.1,25,0.00,OVC,SCT,0.00,0.0,WeatherDisplay:10.37,2013-06-29 00:16:00,
2013-06-28 19:21:00,82.8,42.3,29.85,WNW,292,4.9,10.4,24,0.00,OVC,SCT,0.00,0.0,WeatherDisplay:10.37,2013-06-29 00:21:00,
2013-06-28 19:26:00,82.6,42.1,29.85,ESE,112,4.3,6.9,24,0.00,OVC,SCT,0.00,0.0,WeatherDisplay:10.37,2013-06-29 00:26:00,
2013-06-28 19:31:00,82.2,41.8,29.85,SSW,202,5.6,9.2,24,0.00,OVC,SCT,0.00,0.0,WeatherDisplay:10.37,2013-06-29 00:31:00,
2013-06-28 19:37:00,81.9,41.5,29.85,NW,315,3.8,5.9,24,0.00,OVC,SCT,0.00,0.0,WeatherDisplay:10.37,2013-06-29 00:37:00,
2013-06-28 19:42:00,81.9,42.6,29.85,WNW,292,4.3,10.4,25,0.00,OVC,SCT,0.00,0.0,WeatherDisplay:10.37,2013-06-29 00:42:00,
2013-06-28 19:47:00,81.5,42.3,29.85,WNW,292,4.5,12.7,25,0.00,OVC,SCT,0.00,0.0,WeatherDisplay:10.37,2013-06-29 00:47:00,
2013-06-28 19:52:00,81.1,42.0,29.85,North,0,4.0,9.2,25,0.00,OVC,SCT,0.00,0.0,WeatherDisplay:10.37,2013-06-29 00:52:00,
2013-06-28 19:57:00,81.0,42.8,29.85,SSW,202,2.9,4.6,26,0.00,OVC,SCT,0.00,0.0,WeatherDisplay:10.37,2013-06-29 00:57:00,
2013-06-28 20:02:00,80.6,42.5,29.85,North,0,2.6,2.6,26,0.00,OVC,SCT,0.00,0.0,WeatherDisplay:10.37,2013-06-29 01:02:00,
2013-06-28 20:07:00,80.4,42.4,29.85,NNE,22,4.0,6.4,26,0.00,OVC,SCT,0.00,0.0,WeatherDisplay:10.37,2013-06-29 01:07:00,
2013-06-28 20:12:00,80.2,42.2,29.85,ENE,68,4.7,9.2,26,0.00,OVC,SCT,0.00,0.0,WeatherDisplay:10.37,2013-06-29 01:12:00,
2013-06-28 20:17:00,80.1,43.1,29.85,SSW,202,4.0,8.1,27,0.00,OVC,SCT,0.00,0.0,WeatherDisplay:10.37,2013-06-29 01:17:00,
2013-06-28 20:22:00,79.7,42.8,29.85,NNE,22,3.6,5.8,27,0.00,OVC,SCT,0.00,0.0,WeatherDisplay:10.37,2013-06-29 01:22:00,
2013-06-28 20:28:00,79.5,42.6,29.85,North,0,2.6,5.8,27,0.00,OVC,SCT,0.00,0.0,WeatherDisplay:10.37,2013-06-29 01:28:00,
2013-06-28 20:33:00,79.2,43.2,29.85,WSW,248,2.4,4.6,28,0.00,OVC,SCT,0.00,0.0,WeatherDisplay:10.37,2013-06-29 01:33:00,
2013-06-28 20:38:00,78.8,43.8,29.85,SW,225,2.2,3.5,29,0.00,OVC,SCT,0.00,0.0,WeatherDisplay:10.37,2013-06-29 01:38:00,
2013-06-28 20:43:00,78.6,43.7,29.85,WNW,292,2.6,5.8,29,0.00,OVC,SCT,0.00,0.0,WeatherDisplay:10.37,2013-06-29 01:43:00,
2013-06-28 20:49:00,78.1,44.1,29.85,WNW,292,1.4,5.8,30,0.00,OVC,SCT,0.00,0.0,WeatherDisplay:10.37,2013-06-29 01:49:00,
2013-06-28 20:54:00,77.7,43.8,29.85,WNW,292,2.9,5.8,30,0.00,OVC,SCT,0.00,0.0,WeatherDisplay:10.37,2013-06-29 01:54:00,
2013-06-28 20:59:00,77.5,43.6,29.88,SW,225,1.6,5.8,30,0.00,OVC,SCT,0.00,0.0,WeatherDisplay:10.37,2013-06-29 01:59:00,
2013-06-28 21:04:00,77.2,43.3,29.88,North,0,2.0,4.6,30,0.00,OVC,SCT,0.00,0.0,WeatherDisplay:10.37,2013-06-29 02:04:00,
2013-06-28 21:09:00,76.8,43.9,29.88,SSW,202,1.6,3.6,31,0.00,OVC,SCT,0.00,0.0,WeatherDisplay:10.37,2013-06-29 02:09:00,
2013-06-28 21:14:00,76.6,43.7,29.88,NW,315,2.2,6.7,31,0.00,OVC,SCT,0.00,0.0,WeatherDisplay:10.37,2013-06-29 02:14:00,
2013-06-28 21:19:00,76.1,43.3,29.88,NNW,338,3.1,4.6,31,0.00,OVC,SCT,0.00,0.0,WeatherDisplay:10.37,2013-06-29 02:19:00,
2013-06-28 21:24:00,75.9,43.1,29.88,NE,45,2.0,3.5,31,0.00,OVC,SCT,0.00,0.0,WeatherDisplay:10.37,2013-06-29 02:24:00,
2013-06-28 21:30:00,75.6,43.6,29.85,NW,315,1.6,4.0,32,0.00,OVC,SCT,0.00,0.0,WeatherDisplay:10.37,2013-06-29 02:30:00,
2013-06-28 21:35:00,75.2,43.3,29.85,SSW,202,2.9,4.6,32,0.00,CLR,SCT,0.00,0.0,WeatherDisplay:10.37,2013-06-29 02:35:00,
2013-06-28 21:40:00,75.0,43.1,29.85,North,0,4.5,5.8,32,0.00,CLR,SCT,0.00,0.0,WeatherDisplay:10.37,2013-06-29 02:40:00,
2013-06-28 21:45:00,74.8,43.0,29.85,ESE,112,2.6,5.8,32,0.00,CLR,SCT,0.00,0.0,WeatherDisplay:10.37,2013-06-29 02:45:00,
2013-06-28 21:50:00,74.7,42.8,29.85,NNW,338,4.5,7.1,32,0.00,CLR,SCT,0.00,0.0,WeatherDisplay:10.37,2013-06-29 02:50:00,
2013-06-28 21:55:00,74.7,42.8,29.85,North,0,3.8,5.8,32,0.00,CLR,SCT,0.00,0.0,WeatherDisplay:10.37,2013-06-29 02:55:00,
2013-06-28 22:00:00,74.5,42.7,29.88,NNW,338,3.1,4.3,32,0.00,CLR,SCT,0.00,0.0,WeatherDisplay:10.37,2013-06-29 03:00:00,
2013-06-28 22:05:00,74.3,42.5,29.88,SW,225,2.6,4.6,32,0.00,CLR,SCT,0.00,0.0,WeatherDisplay:10.37,2013-06-29 03:05:00,
2013-06-28 22:10:00,74.1,42.4,29.88,West,270,2.6,3.5,32,0.00,CLR,SCT,0.00,0.0,WeatherDisplay:10.37,2013-06-29 03:10:00,
2013-06-28 22:16:00,73.8,42.0,29.88,NNW,338,1.4,2.6,32,0.00,CLR,SCT,0.00,0.0,WeatherDisplay:10.37,2013-06-29 03:16:00,
2013-06-28 22:21:00,73.6,42.7,29.88,NNE,22,2.4,2.4,33,0.00,CLR,SCT,0.00,0.0,WeatherDisplay:10.37,2013-06-29 03:21:00,
2013-06-28 22:26:00,73.4,42.5,29.88,NNW,338,2.2,2.9,33,0.00,CLR,SCT,0.00,0.0,WeatherDisplay:10.37,2013-06-29 03:26:00,
2013-06-28 22:31:00,73.0,43.0,29.85,NNW,338,2.2,3.5,34,0.00,CLR,SCT,0.00,0.0,WeatherDisplay:10.37,2013-06-29 03:31:00,
2013-06-28 22:36:00,72.7,43.4,29.85,NW,315,2.6,3.8,35,0.00,CLR,SCT,0.00,0.0,WeatherDisplay:10.37,2013-06-29 03:36:00,
2013-06-28 22:37:00,72.7,43.4,29.85,West,270,2.9,3.8,35,0.00,CLR,SCT,0.00,0.0,WeatherDisplay:10.37,2013-06-29 03:37:00,
2013-06-28 22:42:00,72.5,43.3,29.85,North,0,2.4,3.6,35,0.00,CLR,SCT,0.00,0.0,WeatherDisplay:10.37,2013-06-29 03:42:00,
2013-06-28 22:47:00,72.3,43.1,29.85,SW,225,2.4,3.5,35,0.00,CLR,SCT,0.00,0.0,WeatherDisplay:10.37,2013-06-29 03:47:00,
2013-06-28 22:53:00,72.1,43.0,29.85,NNW,338,3.1,5.8,35,0.00,CLR,SCT,0.00,0.0,WeatherDisplay:10.37,2013-06-29 03:53:00,
2013-06-28 22:58:00,72.0,42.8,29.88,NW,315,2.9,3.5,35,0.00,CLR,SCT,0.00,0.0,WeatherDisplay:10.37,2013-06-29 03:58:00,
2013-06-28 23:01:00,71.8,42.6,29.88,NNW,338,2.9,4.6,35,0.00,CLR,SCT,0.00,0.0,WeatherDisplay:10.37,2013-06-29 04:01:00,
2013-06-28 23:02:00,71.8,42.6,29.88,WNW,292,3.3,3.5,35,0.00,CLR,SCT,0.00,0.0,WeatherDisplay:10.37,2013-06-29 04:02:00,
2013-06-28 23:03:00,71.8,42.6,29.88,WNW,292,3.1,4.6,35,0.00,CLR,SCT,0.00,0.0,WeatherDisplay:10.37,2013-06-29 04:03:00,
2013-06-28 23:08:00,71.6,42.5,29.88,WNW,292,2.0,3.5,35,0.00,CLR,SCT,0.00,0.0,WeatherDisplay:10.37,2013-06-29 04:08:00,
2013-06-28 23:14:00,71.4,43.1,29.88,NNW,338,2.2,3.5,36,0.00,CLR,SCT,0.00,0.0,WeatherDisplay:10.37,2013-06-29 04:14:00,
2013-06-28 23:19:00,71.2,42.9,29.88,WNW,292,2.9,4.6,36,0.00,CLR,SCT,0.00,0.0,WeatherDisplay:10.37,2013-06-29 04:19:00,
2013-06-28 23:24:00,71.1,42.7,29.88,WNW,292,2.2,3.5,36,0.00,CLR,SCT,0.00,0.0,WeatherDisplay:10.37,2013-06-29 04:24:00,
2013-06-28 23:29:00,70.9,42.6,29.88,West,270,2.6,4.6,36,0.00,CLR,SCT,0.00,0.0,WeatherDisplay:10.37,2013-06-29 04:29:00,
2013-06-28 23:34:00,70.9,42.6,29.88,WNW,292,2.2,3.8,36,0.00,CLR,SCT,0.00,0.0,WeatherDisplay:10.37,2013-06-29 04:34:00,
2013-06-28 23:39:00,70.7,42.4,29.88,NW,315,1.6,4.6,36,0.00,CLR,SCT,0.00,0.0,WeatherDisplay:10.37,2013-06-29 04:39:00,
2013-06-28 23:45:00,70.7,42.4,29.85,NW,323,2.0,6.0,36,0.00,CLR,SCT,0.00,0.0,WeatherDisplay:10.37,2013-06-29 04:45:00,
2013-06-28 23:50:00,70.5,42.3,29.85,West,270,2.2,3.5,36,0.00,CLR,SCT,0.00,0.0,WeatherDisplay:10.37,2013-06-29 04:50:00,
2013-06-28 23:55:00,70.3,42.1,29.85,NNW,338,2.4,3.5,36,0.00,CLR,SCT,0.00,0.0,WeatherDisplay:10.37,2013-06-29 04:55:00,